This demonstration page uses our WeatherBlox Daily Observations layout. Learn more.

Hourly Observations for April 16, 2018

Temp ( °F °C ) Dew Point ( °F °C ) Humidity (%) Winds ( mph kmh ) Pressure ( in mb ) Visibility ( mi km ) Precip ( " mm )
12:15 am 00:15 Cloudy with Rain 43 6 43 6 100 100 N 7 11 29.77 1008 5 8.04672 0.01 0.254
12:35 am 00:35 Cloudy 41 5 41 5 100 100 N 12 19 29.74 1007 2 3.218688 0.2 5.08
12:55 am 00:55 Cloudy with Areas of Snow 41 5 41 5 100 100 undefined N/A 29.74 1007 0.75 1.207008 0.57 14.478
1:15 am 01:15 Cloudy with Nearby Thunderstorms 41 5 41 5 100 100 NNE 10 17 29.71 1006 4 6.437376 0.06 1.524
1:35 am 01:35 Cloudy with Heavy Rain 41 5 41 5 100 100 NE 8 13 29.68 1005 2.5 4.02336 0.15 3.81
1:55 am 01:55 Cloudy with Light Rain 43 6 43 6 100 100 NE 9 15 29.62 1003 3 4.828032 0.24 6.096
2:15 am 02:15 Cloudy 43 6 43 6 100 100 NE 12 19 29.59 1002 4 6.437376 0.07 1.778
2:35 am 02:35 Cloudy with Heavy Rain 43 6 43 6 100 100 NNE 8 13 29.59 1002 3 4.828032 0.16 4.064
2:55 am 02:55 Cloudy with Heavy Rain 43 6 43 6 100 100 N 10 17 29.56 1001 5 8.04672 0.27 6.858
3:15 am 03:15 Cloudy with Heavy Rain 43 6 43 6 100 100 NW 13 20 29.56 1001 5 8.04672 0.06 1.524
3:35 am 03:35 Cloudy with Rain 45 7 45 7 100 100 N 6 9 29.56 1001 5 8.04672 0.13 3.302
3:55 am 03:55 Cloudy with Light Rain 45 7 45 7 100 100 NNE 3 6 29.56 1001 10 16.09344 0.16 4.064
4:15 am 04:15 Cloudy with Rain 45 7 45 7 100 100 N 7 11 29.56 1001 10 16.09344 0.01 0.254
4:35 am 04:35 Cloudy with Rain 45 7 45 7 100 100 NNW 8 13 29.56 1001 10 16.09344 0.04 1.016
4:55 am 04:55 Cloudy with Rain 45 7 45 7 100 100 NNE 7 11 29.53 1000 7 11.265408 0.1 2.54
5:15 am 05:15 Cloudy with Light Rain 45 7 45 7 100 100 N 8 13 29.5 999 10 16.09344 0.01 0.254
5:35 am 05:35 Cloudy with Light Rain 45 7 45 7 100 100 NNW 6 9 29.5 999 10 16.09344 0.02 0.508
5:55 am 05:55 Cloudy 45 7 45 7 100 100 N 9 15 29.5 999 10 16.09344 0.02 0.508
6:15 am 06:15 Cloudy with Rain 43 6 43 6 100 100 WNW 8 13 29.53 1000 3 4.828032 0 0
6:35 am 06:35 Cloudy with Light Rain 43 6 43 6 100 100 NW 12 19 29.5 999 4 6.437376 0.01 0.254
6:55 am 06:55 Cloudy with Rain 43 6 43 6 100 100 NNW 9 15 29.5 999 7 11.265408 0.01 0.254
7:15 am 07:15 Cloudy with Light Rain 43 6 43 6 100 100 NNW 10 17 29.5 999 10 16.09344 0 0
7:35 am 07:35 Cloudy 43 6 43 6 100 100 NNW 10 17 29.5 999 10 16.09344 0 0
7:55 am 07:55 Cloudy with Light Rain 43 6 43 6 100 100 NNW 16 26 29.5 999 7 11.265408 0 0
8:15 am 08:15 Cloudy with Rain 43 6 43 6 100 100 NW 15 24 29.5 999 1 1.609344 0.18 4.572
8:35 am 08:35 Cloudy with Rain 43 6 43 6 100 100 NNW 14 22 29.5 999 10 16.09344 0.2 5.08
8:55 am 08:55 Cloudy with Light Drizzle 43 6 43 6 100 100 NW 12 19 29.53 1000 10 16.09344 0.2 5.08
9:15 am 09:15 Cloudy with Light Rain 43 6 43 6 100 100 WNW 8 13 29.53 1000 10 16.09344 0 0
9:35 am 09:35 Cloudy with Light Rain 45 7 45 7 100 100 NNW 9 15 29.5 999 7 11.265408 0.01 0.254
9:55 am 09:55 Cloudy 45 7 45 7 100 100 NNW 10 17 29.53 1000 10 16.09344 0.01 0.254
10:15 am 10:15 Cloudy with Light Rain 45 7 45 7 100 100 WNW 14 22 29.53 1000 10 16.09344 0 0
10:35 am 10:35 Cloudy with Light Rain 45 7 45 7 100 100 NW 21 33 29.53 1000 10 16.09344 0.01 0.254
10:55 am 10:55 Cloudy 45 7 45 7 100 100 NW 20 31 29.53 1000 10 16.09344 0.01 0.254
11:15 am 11:15 Cloudy 46 8 45 7 93 93 WNW 17 28 29.53 1000 10 16.09344 0 0
11:35 am 11:35 Cloudy 46 8 45 7 93 93 NW 25 41 29.53 1000 10 16.09344 0 0
11:55 am 11:55 Cloudy with Light Drizzle 46 8 45 7 93 93 NW 18 30 29.53 1000 10 16.09344 0 0
12:15 pm 12:15 Cloudy with Light Rain 48 9 45 7 87 87 NW 21 33 29.53 1000 10 16.09344 0 0
12:35 pm 12:35 Cloudy 48 9 43 6 82 82 NW 16 26 29.56 1001 10 16.09344 0 0
12:55 pm 12:55 Cloudy 48 9 41 5 76 76 NW 21 33 29.56 1001 10 16.09344 0 0
1:15 pm 13:15 Cloudy 48 9 39 4 71 71 NW 21 33 29.56 1001 10 16.09344 0 0
1:35 pm 13:35 Cloudy with Light Rain 48 9 41 5 76 76 WNW 23 37 29.59 1002 10 16.09344 0 0
1:55 pm 13:55 Cloudy 50 10 39 4 67 67 WNW 24 39 29.56 1001 10 16.09344 0 0
2:15 pm 14:15 Cloudy 50 10 37 3 62 62 NW 17 28 29.59 1002 10 16.09344 0 0
2:35 pm 14:35 Cloudy 50 10 37 3 62 62 WNW 20 31 29.59 1002 10 16.09344 0 0
2:55 pm 14:55 Cloudy 50 10 39 4 67 67 NNW 15 24 29.59 1002 10 16.09344 0 0
3:15 pm 15:15 Cloudy 50 10 39 4 67 67 NW 18 30 29.59 1002 10 16.09344 0 0
3:35 pm 15:35 Cloudy 50 10 37 3 62 62 WNW 16 26 29.62 1003 10 16.09344 0 0
3:55 pm 15:55 Cloudy 50 10 36 2 58 58 NW 23 37 29.59 1002 10 16.09344 0 0
4:15 pm 16:15 Cloudy 50 10 34 1 54 54 NW 16 26 29.62 1003 10 16.09344 0 0
4:35 pm 16:35 Cloudy 50 10 36 2 58 58 NW 21 33 29.62 1003 10 16.09344 0 0
4:55 pm 16:55 Cloudy 50 10 36 2 58 58 NW 15 24 29.62 1003 10 16.09344 0 0
5:15 pm 17:15 Cloudy 50 10 36 2 58 58 NW 21 33 29.62 1003 10 16.09344 0 0
5:35 pm 17:35 Mostly Cloudy 50 10 36 2 58 58 NNW 20 31 29.65 1004 10 16.09344 0 0
5:55 pm 17:55 Mostly Cloudy 48 9 34 1 58 58 NW 20 31 29.65 1004 10 16.09344 0 0
6:15 pm 18:15 Cloudy 50 10 34 1 54 54 NW 20 31 29.65 1004 10 16.09344 0 0
6:35 pm 18:35 Cloudy 50 10 34 1 54 54 NW 15 24 29.65 1004 10 16.09344 0 0
6:55 pm 18:55 Cloudy 50 10 32 0 50 50 WNW 22 35 29.68 1005 10 16.09344 0 0
7:15 pm 19:15 Cloudy 48 9 34 1 58 58 NNW 15 24 29.68 1005 10 16.09344 0 0
7:35 pm 19:35 Cloudy 46 8 34 1 62 62 NNW 14 22 29.68 1005 10 16.09344 0 0
7:55 pm 19:55 Cloudy 46 8 34 1 62 62 NW 12 19 29.71 1006 10 16.09344 0 0
8:15 pm 20:15 Cloudy 46 8 34 1 62 62 WNW 17 28 29.71 1006 10 16.09344 0 0
8:35 pm 20:35 Cloudy 46 8 32 0 57 57 NW 14 22 29.71 1006 10 16.09344 0 0
8:55 pm 20:55 Cloudy 46 8 32 0 57 57 NW 15 24 29.74 1007 10 16.09344 0 0
9:15 pm 21:15 Partly Cloudy 45 7 32 0 61 61 NW 14 22 29.74 1007 10 16.09344 0 0
9:35 pm 21:35 Partly Cloudy 45 7 32 0 61 61 NW 13 20 29.74 1007 10 16.09344 0 0
9:55 pm 21:55 Partly Cloudy 45 7 32 0 61 61 WNW 12 19 29.74 1007 10 16.09344 0 0
10:15 pm 22:15 Partly Cloudy 45 7 32 0 61 61 WNW 10 17 29.74 1007 10 16.09344 0 0
10:35 pm 22:35 Mostly Cloudy 45 7 32 0 61 61 NW 16 26 29.8 1009 10 16.09344 0 0
10:55 pm 22:55 Cloudy 43 6 32 0 66 66 NW 17 28 29.77 1008 10 16.09344 0 0
11:15 pm 23:15 Cloudy 43 6 32 0 66 66 WNW 17 28 29.8 1009 10 16.09344 0 0
11:35 pm 23:35 Cloudy 43 6 32 0 66 66 NW 26 43 29.77 1008 10 16.09344 0 0
11:55 pm 23:55 Cloudy 43 6 32 0 66 66 WNW 20 31 29.8 1009 10 16.09344 0 0

Powered by AerisWeather